Regional Weather Roundup
Issued by NWS

Home | Current Version | Previous Version | Graphics & Text | Print | Product List | Glossary On
Versions: 1 2 3 4 5 6 7 8 9 10 11 12 13 14 15 16 17 18 19 20 21 22 23 24 25 26 27 28 29 30 31 32 33 34 35 36 37 38 39 40 41 42 43 44 45 46 47 48 49 50
000
ASUS43 KLSX 301857
RWRMO

WEATHER SUMMARY FOR MISSOURI
NATIONAL WEATHER SERVICE SPRINGFIELD MO
200 PM CDT MON MAY 30 2016

NOTE: "FAIR" INDICATES FEW OR NO CLOUDS BELOW 12,000 FEET WITH NO
       SIGNIFICANT WEATHER AND/OR OBSTRUCTIONS TO VISIBILITY.
       CURRENT SKY AND/OR WEATHER CONDITIONS ARE NOT AVAILABLE FOR
       CHILLICOTHE AND FARMINGTON.

MOZ001>031-035>038-043-044-053-054-302000-
...NORTHERN AND WESTERN MISSOURI...

CITY           SKY/WX    TMP DP  RH WIND       PRES   REMARKS
KANSAS CTY INT PTSUNNY   83  63  50 S10       29.99F
LEE`S SUMMIT   CLOUDY    79  64  60 S7        30.01S
ST JOSEPH      MOSUNNY   85  62  46 S10       29.96F
CHILLICOTHE      N/A     87  67  51 VRB6      29.99F HX  90

$$
MOZ066>068-077>081-088>096-101>105-302000-
...SOUTHWEST MISSOURI...

CITY           SKY/WX    TMP DP  RH WIND       PRES   REMARKS
SPRINGFIELD    CLOUDY    75  61  61 SW17      30.06S
JOPLIN         LGT RAIN  69  67  93 E3        30.10S
BRANSON        LGT RAIN  72  66  83 W8        30.10S

$$
MOZ032>034-039>042-045>050-055>058-069>072-302000-
...CENTRAL MISSOURI...

CITY           SKY/WX    TMP DP  RH WIND       PRES   REMARKS
COLUMBIA       NOT AVBL
JEFFERSON CITY CLOUDY    85  62  46 S8        30.01F
ROLLA          MOSUNNY   82  61  48 SE8       30.03F
SEDALIA        CLOUDY    84  64  50 S12       30.03F
WARRENSBURG    CLOUDY    81  63  54 SE9       30.01S

$$
MOZ051-052-059>065-302000-
...EAST CENTRAL MISSOURI...

CITY           SKY/WX    TMP DP  RH WIND       PRES   REMARKS
ST LOUIS INTL  PTSUNNY   88  58  36 SE5       30.03F

$$
MOZ072>076-082>087-097>100-106>115-302000-
...SOUTH CENTRAL AND SOUTHEAST MISSOURI...

CITY           SKY/WX    TMP DP  RH WIND       PRES   REMARKS
CAPE GIRARDEAU SUNNY     85  58  39 S5        30.03F
POPLAR BLUFF   SUNNY     85  60  42 SE9       30.03F
WEST PLAINS    PTSUNNY   81  62  52 SE7       30.08F

$$



USA.gov is the U.S. government's official web portal to all federal, state and local government web resources and services.